Regional Weather Roundup
Issued by NWS Mt. Holly, NJ

Home | Current Version | Previous Version | Text Only | Print | Product List | Glossary On
Versions: 1 2 3 4 5 6 7 8 9 10 11 12 13 14 15 16 17 18 19 20 21 22 23 24 25 26 27 28
000
ASUS41 KPHI 262312
RWRPHI

REGIONAL WEATHER ROUNDUP
NATIONAL WEATHER SERVICE MOUNT HOLLY NJ
700 PM EDT FRI MAY 26 2017

NOTE:  "FAIR" INDICATES FEW OR NO CLOUDS BELOW 12,000 FEET WITH NO
SIGNIFICANT WEATHER AND/OR OBSTRUCTIONS TO VISIBILITY.

 * = STATION DOES NOT REPORT PRECIPITATION (E.G. RAIN, SNOW, ETC.)
        OR FOG.

NJZ015>026-270000-
SOUTHERN NEW JERSEY

CITY           SKY/WX    TMP DP  RH WIND       PRES   REMARKS
POMONA         MOSUNNY   73  55  53 W12       29.73R
WILDWOOD*      CLOUDY    70  58  65 W12       29.77R
MILLVILLE      CLOUDY    69  59  70 W10       29.76R
WRIGHTSTOWN    CLOUDY    70  57  63 NW7       29.70R
MOUNT HOLLY    CLOUDY    72  51  47 W10G18    29.72R
TRENTON        CLOUDY    70  54  56 NW6       29.72R

$$
NJZ001>014-270000-
NORTHERN NEW JERSEY

CITY           SKY/WX    TMP DP  RH WIND       PRES   REMARKS
SUSSEX         PTSUNNY   69  54  58 CALM      29.71R
ANDOVER*         N/A     70  53  54 N6        29.71R
MORRISTOWN     MOSUNNY   72  55  56 W9G16     29.69R
NEWARK         CLOUDY    72  56  57 W16       29.67R
TETERBORO      PTSUNNY   74  53  48 NW10G21   29.65R
CALDWELL       MOSUNNY   75  52  44 NW9G24    29.68R
SOMERVILLE     CLOUDY    70  56  61 W6        29.69R
ALLAIRE*       CLOUDY    70  55  59 W9        29.71R
TOMS RIVER*    CLOUDY    69  58  67 NW8       29.72R

$$
PAZ043-044-047-054-055-060>062-066>071-270000-
EASTERN PENNSYLVANIA

CITY           SKY/WX    TMP DP  RH WIND       PRES   REMARKS
PHILADELPHIA   PTSUNNY   73  52  47 W18       29.75R
NORTH PHILA    CLOUDY    73  54  51 W10       29.74R
BLUE BELL*     CLOUDY    68  54  60 W7        29.76R
DOYLESTOWN     CLOUDY    69  54  58 W7        29.73R
QUAKERTOWN*    CLOUDY    66  55  68 NW6       29.75R
PERKASIE*      CLOUDY    66  54  63 NW12G22   29.76R
POTTSTOWN      CLOUDY    68  52  56 VRB6G20   29.77R
LANCASTER      CLOUDY    71  55  56 W20G25    29.78R
COATESVILLE    CLOUDY    68  54  60 NW16G23   29.79R
READING        CLOUDY    69  55  60 W14       29.75R
ALLENTOWN      CLOUDY    70  54  56 W6        29.73R
MOUNT POCONO   MOSUNNY   61  52  72 NW10      29.76R
HAZLETON       RAIN      61  54  77 NW9       29.81R
LEHIGHTON      CLOUDY    68  54  60 W3        29.76R
WILKES BARRE   CLOUDY    67  55  65 NW9       29.75R

$$
DEZALL-MDZ008-012-015-019-020-270000-
DELAWARE AND EASTERN MARYLAND

CITY           SKY/WX    TMP DP  RH WIND       PRES   REMARKS
WILMINGTON     CLOUDY    72  57  59 W18       29.77R
DOVER          CLOUDY    72  61  68 W9        29.77R
GEORGETOWN     CLOUDY    75  55  49 W9        29.79R
EASTON         PTSUNNY   73  57  56 NW8       29.84R
ABERDEEN       CLOUDY    70  54  57 NW10      29.80R
PATUXENT       PTSUNNY   75  59  57 NW9       29.81R
OCEAN CITY     PTSUNNY   73  56  54 VRB7      29.80R
WALLOPS ISLAND CLOUDY    74  56  53 W13G20    29.81R
CAMBRIDGE      CLOUDY    73  57  56 VRB6G14   29.81R
SALISBURY      CLOUDY    74  56  53 W9        29.80R

$$
PAZ001-021-NYZ056-072-MDZ011-DCZ001-270000-
OTHER NEARBY LOCATIONS

CITY           SKY/WX    TMP DP  RH WIND       PRES   REMARKS
HARRISBURG     PTSUNNY   69  55  60 W17G23    29.79R
STATE COLLEGE  CLOUDY    59  52  77 W13       29.86R
WILLIAMSPORT   CLOUDY    68  55  63 NW6       29.76R
BINGHAMTON     CLOUDY    56  54  93 N10       29.78R
NEW YORK CITY  MOSUNNY   72  54  53 MISG      29.69R
BALTIMORE      MOSUNNY   72  54  53 NW17G25   29.81R
WASHINGTON DC  PTSUNNY   75  54  47 NW13G22   29.83R

$$




USA.gov is the U.S. government's official web portal to all federal, state and local government web resources and services.